Back to catalog

SL-14 DEB

AlivePO
NORAD 45270·DEBRIS·🇷🇺 Russia

Launched Aug 15, 1991 from Plesetsk Cosmodrome

Loading…

Next Passes (next 24 hours)

TLE

FreshSource: Space-Track

Epoch: Sep 14, 2026, 04:02 UTC

1 45270U 91056G   26257.16821276  .00000109  00000-0  23022-3 0  9996
2 45270  82.5643  64.1690 0032522 176.1118 184.0267 13.22465614317815

Track SL-14 DEB in real time with AllMySat

Download on the App Store